This is the latest recevied weather packets stored in our database for station/object KB2SKP. If no packets are shown the sender has not sent any weather packets the latest 10 day(s).
| Time | Temp. | Humidity | Pressure | Rain* | Wind** | Luminosity | Snow |
|---|---|---|---|---|---|---|---|
| 1777564603 | 18.33° C | 50% | 1004.7 hPa | 0 mm | - | 158 W/m² | - |
| 1777564298 | 18.33° C | 51% | 1004.9 hPa | 0 mm | - | 61 W/m² | - |
| 1777563995 | 17.78° C | 51% | 1004.8 hPa | 0 mm | - | 61 W/m² | - |
| 1777563691 | 17.78° C | 51% | 1004.8 hPa | 0 mm | - | 92 W/m² | - |
| 1777563387 | 18.33° C | 51% | 1004.8 hPa | 0 mm | - | 80 W/m² | - |
| 1777563082 | 17.78° C | 54% | 1004.8 hPa | 0 mm | - | 81 W/m² | - |
| 1777562778 | 17.78° C | 51% | 1004.9 hPa | 0 mm | - | 90 W/m² | - |
| 1777562476 | 17.78° C | 55% | 1005.2 hPa | 0 mm | - | 94 W/m² | - |
| 1777562173 | 17.78° C | 51% | 1005.2 hPa | 0 mm | - | 86 W/m² | - |
| 1777561865 | 17.78° C | 54% | 1005 hPa | 0 mm | - | 64 W/m² | - |
| 1777561562 | 17.22° C | 53% | 1005 hPa | 0 mm | - | 142 W/m² | - |
| 1777561257 | 17.22° C | 52% | 1005.2 hPa | 0 mm | - | 60 W/m² | - |
| 1777560957 | 17.22° C | 55% | 1005.3 hPa | 0 mm | - | 182 W/m² | - |
| 1777560654 | 17.22° C | 58% | 1005.3 hPa | 0 mm | - | 104 W/m² | - |
| 1777560351 | 16.67° C | 58% | 1005.4 hPa | 0 mm | - | 110 W/m² | - |
| 1777560049 | 16.67° C | 64% | 1005.3 hPa | 0 mm | - | 100 W/m² | - |
| 1777559745 | 16.67° C | 65% | 1005.2 hPa | 0 mm | - | 98 W/m² | - |
| 1777559442 | 16.67° C | 66% | 1005.5 hPa | 0 mm | - | 99 W/m² | - |
| 1777559139 | 16.11° C | 73% | 1005.4 hPa | 0 mm | - | 44 W/m² | - |
| 1777558839 | 15.56° C | 72% | 1005.5 hPa | 0 mm | - | 85 W/m² | - |
| 1777558534 | 15.56° C | 74% | 1005.3 hPa | 0 mm | - | 115 W/m² | - |
| 1777558231 | 15° C | 78% | 1005.2 hPa | 0 mm | - | 104 W/m² | - |
| 1777557927 | 15° C | 81% | 1005.3 hPa | 0 mm | - | 104 W/m² | - |
| 1777557624 | 15° C | 83% | 1005.1 hPa | 0 mm | - | 105 W/m² | - |
| 1777557320 | 14.44° C | 84% | 1005.3 hPa | 0 mm | - | 83 W/m² | - |
* Rain latest hour (hover to see other rain measurements)
** Current wind speed in m/s (hover to see current wind gust speed)